www.pogodaiklimat.ru

Погода и климат >> Архив погоды >> Туркменистан >> Дервезе


ПОГОДА в Дервезе

  • Прогноз погоды в Дервезе
  • Монитор погоды в Дервезе

АРХИВ ПОГОДЫ в Дервезе

Время (UTC), дата Ветер
(напр.,м/с)
 
Видим.   Явления Облачность Т
(С)
Тd
(С)
f
(%)
Тe
(С)
Тes
(С)
Комфортность P
(гПа)
Po
(гПа)
Тmin
(С)
Tmax
(С)
R
(мм)
R24
(мм)
S
(см)
12 12.08 СЗ 6 20 км ясно +31.9 +5.6 19 +30 +32 жарко 1011.5 1001.7
15 12.08 СЗ 6 20 км ясно +31.4 +6.7 21 +30 +30 жарко 1010.9 1001.1 +32.2
21 12.08 СЗ 6 20 км ясно +24.7 +8.1 35 +25 +25 комфорт 1013.0 1003.0
03 13.08 С 4 20 км ясно +20.4 +7.4 43 +22 +23 комфорт 1014.8 1004.6 +19.4
06 13.08 СЗ 2 20 км ясно +24.9 +6.1 30 +25 +38 комфорт 1015.3 1005.3 +19.4
12 13.08 СЗ 4 20 км ясно +28.9 +3.6 20 +27 +31 жарко 1013.9 1004.0
15 13.08 З 4 20 км ясно +28.4 +5.6 23 +27 +27 жарко 1013.2 1003.3 +29.3
18 13.08 З 4 20 км ясно +25.7 +5.8 28 +25 +25 комфорт 1013.8 1003.9 +29.3
21 13.08 СЗ 4 20 км ясно +23.6 +7.7 36 +24 +24 комфорт 1014.3 1004.3
00 14.08 С 2 20 км ясно +18.6 +6.4 45 +19 +19 1013.8 1003.6
03 14.08 З 6 20 км ясно +19.4 +6.7 44 +20 +21 1014.5 1004.3 +17.3
06 14.08 С 8 10 км ясно +23.4 +6.5 34 +24 +26 комфорт 1015.7 1005.6 +17.3
09 14.08 СЗ 6 20 км ясно +25.7 +5.9 28 +25 +32 комфорт 1015.5 1005.5
12 14.08 З 6 20 км ясно +27.2 +5.3 25 +26 +29 жарко 1014.5 1004.5
15 14.08 СЗ 4 20 км ясно +26.6 +6.7 28 +26 +26 жарко 1014.2 1004.3 +27.4
18 14.08 В 2 20 км ясно +21.7 +5.0 34 +22 +22 комфорт 1015.0 1004.9 +27.4
21 14.08 З 2 20 км ясно +19.8 +5.1 38 +21 +21 комфорт 1015.4 1005.2
00 15.08 З 2 20 км ясно +17.1 +5.6 47 +17 +17 1015.2 1005.0
03 15.08 З 2 20 км ясно +17.6 +6.5 48 +18 +20 1015.9 1005.6 +15.7
06 15.08 З 2 20 км ясно +25.9 +9.0 34 +26 +40 жарко 1015.7 1005.7 +15.7
18 15.08 С 2 20 км ясно +25.1 +7.6 33 +25 +25 комфорт 1013.6 1003.7 +31.3
21 15.08 С 2 20 км ясно +21.2 +6.1 37 +22 +22 комфорт 1014.5 1004.4
00 16.08 СВ 2 20 км ясно +18.5 +5.6 43 +19 +19 1014.5 1004.3
03 16.08 С 2 20 км ясно +19.6 +7.4 45 +21 +23 комфорт 1015.3 1005.1 +18.3
06 16.08 СВ 4 20 км ясно +28.6 +10.7 33 +29 +38 жарко 1015.4 1005.5 +18.3
09 16.08 СВ 4 20 км ясно +30.2 +9.4 27 +30 +41 жарко 1014.4 1004.6
12 16.08 нст 4 20 км ясно +31.9 +7.0 21 +30 +34 жарко 1012.9 1003.1
15 16.08 В 2 20 км ясно +30.8 +7.3 23 +30 +30 жарко 1012.5 1002.7 +32.4
18 16.08 В 2 20 км ясно +26.8 +10.2 35 +27 +27 жарко 1013.2 1003.3 +32.4
21 16.08 В 2 20 км ясно +23.6 +8.6 38 +24 +24 комфорт 1013.7 1003.7
00 17.08 В 4 20 км ясно +21.3 +7.8 42 +22 +22 комфорт 1013.2 1003.1
03 17.08 В 4 20 км ясно +23.1 +7.5 37 +24 +26 комфорт 1013.2 1003.2 +20.8
06 17.08 ЮВ 6 20 км ясно +31.0 +6.5 22 +30 +35 жарко 1013.1 1003.3 +20.8
09 17.08 ЮВ 6 20 км ясно +32.9 +6.4 19 +31 +37 жарко 1012.1 1002.4
12 17.08 В 6 20 км ясно +34.8 +6.4 17 +33 +35 жарко 1010.5 1000.9
15 17.08 В 4 20 км ясно +33.2 +7.8 21 +32 +32 жарко 1010.8 1001.1 +35.2
18 17.08 В 4 20 км ясно +28.7 +8.5 28 +28 +28 жарко 1011.1 1001.3 +35.2
21 17.08 В 4 20 км ясно +26.1 +8.9 34 +26 +26 жарко 1011.4 1001.5
00 18.08 В 2 20 км ясно +23.4 +8.6 39 +25 +25 комфорт 1011.7 1001.7
03 18.08 В 2 20 км ясно +25.4 +9.7 37 +26 +28 жарко 1012.8 1002.9 +21.9
12 18.08 В 4 20 км ясно +36.6 +8.6 18 +35 +39 очень
жарко
1012.7 1003.1
18 18.08 В 2 20 км ясно +29.7 +9.4 28 +29 +29 жарко 1014.0 1004.2 +37.0
03 19.08 В 2 20 км ясно +25.2 +10.0 38 +26 +28 жарко 1015.2 1005.3 +23.3

 

Местоположение метеостанции Дервезе (Дашогузский велаят, Туркменистан): широта 40.18 долгота 58.48 высота над уровнем моря 84 м.

В архиве по умолчанию представлена погода в Дервезе за последнюю неделю. Архивные данные за месяц целиком и за предыдущие месяцы, начиная с января 2011 года, Вы можете получить, выбрав интересующий диапазон дат из раскрывающегося списка и нажав кнопку "Ввод!".


*Определитесь, кто Вы:
робот инопланетянин человек

Внимание! Время в таблицах - всемирное. Для получения местного времени необходимо прибавить поправку, которая равна 5 ч.

Смотрите также архив погоды в соседних городах и на ближайших метеорологических станциях:

Погода в Ербенте (Ахалский велаят, Туркменистан) (96 км)
Погода в Екеже (Дашогузский велаят, Туркменистан) (112 км)
Погода в Акмолле (Ахалский велаят, Туркменистан) (142 км)
Погода в Шах-Сенеме (Дашогузский велаят, Туркменистан) (157 км)
Погода в Дашогузе (Дашогузский велаят, Туркменистан) (208 км)
Погода в Хиве (Хорезмская область, Узбекистан) (210 км)
Погода в Бахарлы (Ахалский велаят, Туркменистан) (215 км)
Погода в Сердаре (Балканский велаят, Туркменистан) (231 км)
Погода в Ургенче (Хорезмская область, Узбекистан) (234 км)
Погода в Кенеургенче (Дашогузский велаят, Туркменистан) (242 км)

Пояснения к столбцам:

Ветер - указаны скорость ветра в м/с - средняя за 10 мин, порывы в срок и между сроками (в фигурных скобках) и направление, откуда дует ветер: С - северный, СВ - северо-восточный, В - восточный, ЮВ - юго-восточный, Ю - южный, ЮЗ - юго-западный, З - западный, СЗ - северо-западный.
Видимость - горизонтальная дальность видимости в метрах или километрах. При видимости от 1 до 10 км при отсутствии осадков обычно наблюдается дымка, при ухудшении видимости до 1 км и менее - туман. В сухую погоду видимость может ухудшаться дымом, пылью или мглою.
Явления - указаны атмосферные явления, наблюдавшиеся в срок или в последний час перед сроком; фигурными скобками обозначены явления, наблюдавшиеся между сроками (за 1-3 часа до срока); квадратными скобками обозначены град или гололедные отложения с указанием их диаметра в мм.
Облачность - указаны через наклонную черту общая и нижняя облачность в баллах и высота нижней границы облаков в метрах; квадратными скобками обозначены формы облаков: Ci - перистые, Cs - перисто-слоистые, Cc - перисто-кучевые, Ac - высококучевые, As - высокослоистые, Sc - слоисто-кучевые, Ns - слоисто-дождевые, Cu - кучевые, Cb - кучево-дождевые. Подробнее классификацию облаков см. в Атласе облаков (PDF).
T - Температура воздуха - температура, измеренная на высоте 2 м над землей.
Td - Температура точки росы - температура, при понижении до которой содержащийся в воздухе водяной пар достигнет насыщения.
f - Относительная влажность воздуха - влажноcть воздуха, измеренная на высоте 2 м над землей.
Te - Эффективная температура - температура, которую ощущает одетый по сезону человек в тени. Характеристика душности погоды. При расчете учитывается влияние влажности воздуха и скорости ветра на теплоощущения человека.
Tes - Эффективная температура на солнце - температура, которую ощущает человек, с поправкой на солнечный нагрев. Характеристика знойности погоды. Зависит от высоты солнца над горизонтом, облачности и скорости ветра. Ночью, в пасмурную погоду, а также при ветре 12 м/с и более поправка равна нулю.
P - Атмосферное давление - приведенное к уровню моря атмосферное давление.
Po - Атмосферное давление - измеренное на уровне метеостанции атмосферное давление.
Tmin - Минимальная температура - минимум температуры воздуха на высоте 2 м над землей.
Tmax - Максимальная температура - максимум температуры воздуха на высоте 2 м над землей.
R - Количество осадков - Количество выпавших осадков за период времени, мм. При наведении курсора мыши на число - период времени, за который выпало указанное количество осадков.
R24 - Количество осадков - Количество выпавших осадков за 24 часа, мм.
S - Снежный покров - Высота снежного покрова, см. При наведении курсора мыши на число - состояние снежного покрова и степень покрытия местности в баллах.